When you browse on this site, cookies collect data to enhance your experience and personalize the content and advertising you see.
Visit our Privacy Policy to learn more. By continuing to use the site, you agree to this use of cookies and data.
  • In Latvia
  • List of Countries
  • For 7 days
  • Water Temperature
  • Weather Map
  • Weather Widgets
  • user-avatar
    Login

    Hourly Weather Druskininkai

    Today, 23 August, Friday

    Time Temperature Precipitation Wind Pressure Humidity
    00:00 +13°C° 0 mm 0 mps 762 mmHg 85%
    01:00 +13°C° 0 mm 0 mps 762 mmHg 86%
    02:00 +13°C° 0 mm 1 mps 762 mmHg 84%
    03:00 +13°C° 0 mm 1 mps 762 mmHg 85%
    04:00 +13°C° 0 mm 1 mps 762 mmHg 85%
    05:00 +12°C° 0 mm 1 mps 762 mmHg 86%
    06:00 +14°C° 0 mm 1 mps 762 mmHg 80%
    07:00 +16°C° 0 mm 1 mps 762 mmHg 75%
    08:00 +18°C° 0 mm 1 mps 762 mmHg 69%
    09:00 +20°C° 0 mm 1 mps 762 mmHg 63%
    10:00 +22°C° 0 mm 1 mps 762 mmHg 56%
    11:00 +24°C° 0 mm 1 mps 762 mmHg 50%
    12:00 +24°C° 0 mm 1 mps 762 mmHg 47%
    13:00 +25°C° 0 mm 1 mps 762 mmHg 44%
    14:00 +26°C° 0 mm 1 mps 762 mmHg 41%
    15:00 +25°C° 0 mm 1 mps 761 mmHg 42%
    16:00 +25°C° 0 mm 1 mps 761 mmHg 44%
    17:00 +25°C° 0 mm 1 mps 761 mmHg 45%
    18:00 +22°C° 0 mm 1 mps 761 mmHg 53%
    19:00 +20°C° 0 mm 1 mps 761 mmHg 60%
    20:00 +18°C° 0 mm 1 mps 760 mmHg 68%
    21:00 +16°C° 0 mm 1 mps 761 mmHg 69%
    22:00 +16°C° 0 mm 1 mps 761 mmHg 70%
    23:00 +15°C° 0 mm 1 mps 761 mmHg 72%

    Tomorrow, 24 August, Saturday

    Time Temperature Precipitation Wind Pressure Humidity
    00:00 +15°C° 0 mm 1 mps 761 mmHg 73%
    01:00 +14°C° 0 mm 1 mps 761 mmHg 74%
    02:00 +14°C° 0 mm 1 mps 761 mmHg 75%
    03:00 +14°C° 0 mm 1 mps 761 mmHg 76%
    04:00 +13°C° 0 mm 1 mps 760 mmHg 78%
    05:00 +13°C° 0 mm 1 mps 760 mmHg 79%
    06:00 +15°C° 0 mm 1 mps 760 mmHg 75%
    07:00 +16°C° 0 mm 1 mps 760 mmHg 71%
    08:00 +19°C° 0 mm 1 mps 760 mmHg 67%
    09:00 +21°C° 0 mm 1 mps 760 mmHg 61%
    10:00 +23°C° 0 mm 1 mps 760 mmHg 56%
    11:00 +25°C° 0 mm 1 mps 760 mmHg 50%
    12:00 +26°C° 0 mm 1 mps 760 mmHg 48%
    13:00 +26°C° 0 mm 1 mps 760 mmHg 46%
    14:00 +27°C° 0 mm 1 mps 760 mmHg 44%
    15:00 +27°C° 0 mm 1 mps 760 mmHg 46%
    16:00 +26°C° 0 mm 1 mps 759 mmHg 48%
    17:00 +26°C° 0 mm 1 mps 759 mmHg 50%
    18:00 +24°C° 0 mm 1 mps 759 mmHg 59%
    19:00 +22°C° 0 mm 1 mps 759 mmHg 68%
    20:00 +20°C° 0 mm 1 mps 759 mmHg 77%
    21:00 +19°C° 0 mm 1 mps 759 mmHg 80%
    22:00 +17°C° 0 mm 0 mps 759 mmHg 83%
    23:00 +16°C° 0 mm 0 mps 760 mmHg 86%

    Day after tomorrow, 25 August, Sunday

    Time Temperature Precipitation Wind Pressure Humidity
    00:00 +16°C° 0 mm 0 mps 760 mmHg 86%
    01:00 +15°C° 0 mm 0 mps 760 mmHg 87%
    02:00 +15°C° 0 mm 0 mps 760 mmHg 87%
    03:00 +15°C° 0 mm 0 mps 760 mmHg 88%
    04:00 +14°C° 0 mm 0 mps 760 mmHg 88%
    05:00 +14°C° 0 mm 0 mps 760 mmHg 88%
    06:00 +16°C° 0 mm 0 mps 760 mmHg 82%
    07:00 +18°C° 0 mm 0 mps 760 mmHg 76%
    08:00 +21°C° 0 mm 1 mps 760 mmHg 69%
    09:00 +23°C° 0 mm 1 mps 760 mmHg 64%
    10:00 +25°C° 0 mm 1 mps 760 mmHg 59%
    11:00 +27°C° 0 mm 1 mps 760 mmHg 53%
    12:00 +27°C° 0 mm 1 mps 760 mmHg 52%
    13:00 +27°C° 0 mm 1 mps 760 mmHg 51%
    14:00 +27°C° 0 mm 1 mps 759 mmHg 50%
    15:00 +27°C° 0 mm 1 mps 759 mmHg 52%
    16:00 +27°C° 0 mm 1 mps 759 mmHg 54%
    17:00 +27°C° 0 mm 1 mps 759 mmHg 56%
    18:00 +25°C° 0 mm 1 mps 759 mmHg 63%
    19:00 +23°C° 0 mm 1 mps 759 mmHg 70%
    20:00 +21°C° 0 mm 1 mps 759 mmHg 78%
    21:00 +20°C° 0 mm 1 mps 759 mmHg 81%
    22:00 +20°C° 0 mm 1 mps 759 mmHg 84%
    23:00 +19°C° 0 mm 1 mps 759 mmHg 88%

    26 August, Monday

    Time Temperature Precipitation Wind Pressure Humidity
    00:00 +19°C° 0 mm 1 mps 759 mmHg 89%
    01:00 +18°C° 0 mm 1 mps 759 mmHg 91%
    02:00 +18°C° 0 mm 1 mps 759 mmHg 93%
    03:00 +18°C° 0 mm 1 mps 759 mmHg 93%
    04:00 +16°C° 0 mm 1 mps 759 mmHg 94%
    05:00 +16°C° 0 mm 1 mps 759 mmHg 94%
    06:00 +19°C° 0 mm 1 mps 759 mmHg 89%
    07:00 +20°C° 0 mm 1 mps 759 mmHg 83%
    08:00 +21°C° 0 mm 1 mps 759 mmHg 77%
    09:00 +23°C° 0 mm 2 mps 759 mmHg 70%
    10:00 +25°C° 0 mm 2 mps 759 mmHg 62%
    11:00 +27°C° 0 mm 2 mps 759 mmHg 54%
    12:00 +27°C° 0 mm 3 mps 759 mmHg 52%
    13:00 +28°C° 0 mm 3 mps 758 mmHg 50%
    14:00 +28°C° 0 mm 3 mps 758 mmHg 49%
    15:00 +28°C° 0 mm 3 mps 758 mmHg 50%
    16:00 +28°C° 0 mm 3 mps 758 mmHg 52%
    17:00 +27°C° 0 mm 2 mps 757 mmHg 54%
    18:00 +26°C° 0 mm 2 mps 757 mmHg 62%
    19:00 +24°C° 0 mm 2 mps 757 mmHg 69%
    20:00 +22°C° 0 mm 1 mps 757 mmHg 77%
    21:00 +21°C° 0 mm 1 mps 757 mmHg 80%
    22:00 +20°C° 0 mm 1 mps 758 mmHg 83%
    23:00 +20°C° 0 mm 1 mps 758 mmHg 86%

    27 August, Tuesday

    Time Temperature Precipitation Wind Pressure Humidity
    00:00 +19°C° 0 mm 1 mps 758 mmHg 88%
    01:00 +19°C° 0 mm 1 mps 758 mmHg 90%
    02:00 +19°C° 0 mm 1 mps 758 mmHg 92%
    03:00 +18°C° 0 mm 1 mps 758 mmHg 92%
    04:00 +18°C° 0 mm 1 mps 758 mmHg 93%
    05:00 +18°C° 0 mm 1 mps 758 mmHg 93%
    06:00 +19°C° 0 mm 1 mps 758 mmHg 88%
    07:00 +21°C° 0 mm 1 mps 758 mmHg 82%
    08:00 +22°C° 0 mm 1 mps 758 mmHg 76%
    09:00 +24°C° 0 mm 1 mps 758 mmHg 69%
    10:00 +26°C° 0 mm 2 mps 758 mmHg 61%
    11:00 +27°C° 0 mm 2 mps 758 mmHg 54%
    12:00 +28°C° 0 mm 2 mps 758 mmHg 51%
    13:00 +28°C° 0 mm 2 mps 758 mmHg 48%
    14:00 +29°C° 0 mm 2 mps 758 mmHg 44%
    15:00 +29°C° 0 mm 2 mps 758 mmHg 47%
    16:00 +28°C° 0 mm 2 mps 758 mmHg 49%
    17:00 +28°C° 0 mm 2 mps 758 mmHg 51%
    18:00 +26°C° 0 mm 2 mps 758 mmHg 58%
    19:00 +24°C° 0 mm 2 mps 757 mmHg 65%
    20:00 +22°C° 0 mm 1 mps 757 mmHg 72%
    21:00 +21°C° 0 mm 1 mps 758 mmHg 75%
    22:00 +21°C° 0 mm 1 mps 758 mmHg 78%
    23:00 +20°C° 0 mm 1 mps 758 mmHg 81%

    28 August, Wednesday

    Time Temperature Precipitation Wind Pressure Humidity
    00:00 +20°C° 0 mm 1 mps 758 mmHg 83%
    01:00 +19°C° 0 mm 1 mps 758 mmHg 85%
    02:00 +19°C° 0 mm 1 mps 758 mmHg 88%
    03:00 +18°C° 0 mm 1 mps 758 mmHg 89%
    04:00 +17°C° 0 mm 2 mps 758 mmHg 91%
    05:00 +17°C° 0 mm 2 mps 758 mmHg 92%
    06:00 +18°C° 0 mm 2 mps 758 mmHg 87%
    07:00 +19°C° 0 mm 2 mps 758 mmHg 81%
    08:00 +21°C° 0 mm 2 mps 758 mmHg 75%
    09:00 +22°C° 0 mm 3 mps 758 mmHg 68%
    10:00 +25°C° 0 mm 3 mps 758 mmHg 62%
    11:00 +27°C° 0 mm 3 mps 758 mmHg 55%
    12:00 +28°C° 0 mm 3 mps 757 mmHg 53%
    13:00 +28°C° 0 mm 3 mps 757 mmHg 51%
    14:00 +29°C° 0 mm 3 mps 757 mmHg 48%
    15:00 +29°C° 0 mm 3 mps 756 mmHg 50%
    16:00 +28°C° 0 mm 3 mps 756 mmHg 52%
    17:00 +28°C° 0 mm 3 mps 756 mmHg 53%
    18:00 +26°C° 0 mm 3 mps 756 mmHg 61%
    19:00 +24°C° 0 mm 3 mps 756 mmHg 69%
    20:00 +21°C° 0 mm 3 mps 756 mmHg 77%
    21:00 +20°C° 0 mm 3 mps 756 mmHg 81%
    22:00 +20°C° 0 mm 3 mps 756 mmHg 84%
    23:00 +19°C° 0 mm 3 mps 756 mmHg 88%
    Show more